When you browse on this site, cookies collect data to enhance your experience and personalize the content and advertising you see.
Visit our Privacy Policy to learn more. By continuing to use the site, you agree to this use of cookies and data.
  • En España
  • Lista de países
  • Para 7 días
  • Temperatura del agua
  • El tiempo en el mapa
  • Informadores
  • user-avatar
    Iniciar sesión

    Tiempo cada hora Bolshoe Chervonnoe

    Hoy, 5 Junio, Viernes

    Tiempo Temperatura Precipitaciones Viento Presión Humedad
    00:00 +8°C° 0 mm 3 mps 733 mmHg 95%
    01:00 +8°C° 0 mm 3 mps 733 mmHg 95%
    02:00 +8°C° 0 mm 3 mps 733 mmHg 96%
    03:00 +8°C° 0 mm 3 mps 733 mmHg 96%
    04:00 +8°C° 0 mm 3 mps 733 mmHg 96%
    05:00 +8°C° 0 mm 3 mps 733 mmHg 97%
    06:00 +10°C° 0.2 mm 3 mps 733 mmHg 94%
    07:00 +11°C° 0.2 mm 4 mps 733 mmHg 92%
    08:00 +13°C° 0.2 mm 4 mps 734 mmHg 89%
    09:00 +13°C° 0.5 mm 4 mps 734 mmHg 88%
    10:00 +14°C° 0.5 mm 4 mps 734 mmHg 87%
    11:00 +14°C° 0.5 mm 5 mps 734 mmHg 85%
    12:00 +15°C° 0 mm 4 mps 734 mmHg 81%
    13:00 +17°C° 0 mm 4 mps 734 mmHg 77%
    14:00 +18°C° 0 mm 3 mps 734 mmHg 73%
    15:00 +18°C° 0 mm 3 mps 734 mmHg 73%
    16:00 +18°C° 0 mm 3 mps 734 mmHg 72%
    17:00 +18°C° 0 mm 2 mps 734 mmHg 72%
    18:00 +17°C° 0 mm 2 mps 735 mmHg 78%
    19:00 +16°C° 0 mm 2 mps 735 mmHg 84%
    20:00 +13°C° 0 mm 3 mps 735 mmHg 90%
    21:00 +13°C° 0 mm 3 mps 735 mmHg 91%
    22:00 +12°C° 0 mm 3 mps 736 mmHg 92%
    23:00 +11°C° 0 mm 3 mps 736 mmHg 93%

    Mañana, 6 Junio, Sábado

    Tiempo Temperatura Precipitaciones Viento Presión Humedad
    00:00 +11°C° 0 mm 3 mps 736 mmHg 94%
    01:00 +11°C° 0 mm 3 mps 736 mmHg 96%
    02:00 +11°C° 0 mm 3 mps 736 mmHg 98%
    03:00 +12°C° 0 mm 3 mps 736 mmHg 97%
    04:00 +13°C° 0 mm 4 mps 736 mmHg 97%
    05:00 +13°C° 0 mm 4 mps 736 mmHg 96%
    06:00 +15°C° 0 mm 5 mps 736 mmHg 93%
    07:00 +17°C° 0 mm 5 mps 736 mmHg 89%
    08:00 +19°C° 0 mm 5 mps 736 mmHg 85%
    09:00 +19°C° 0.7 mm 5 mps 737 mmHg 86%
    10:00 +19°C° 0.7 mm 5 mps 737 mmHg 87%
    11:00 +19°C° 0.7 mm 5 mps 737 mmHg 88%
    12:00 +20°C° 0.3 mm 5 mps 737 mmHg 87%
    13:00 +20°C° 0.3 mm 6 mps 738 mmHg 85%
    14:00 +21°C° 0.3 mm 6 mps 738 mmHg 84%
    15:00 +21°C° 0.1 mm 5 mps 738 mmHg 83%
    16:00 +21°C° 0.1 mm 5 mps 738 mmHg 82%
    17:00 +21°C° 0.1 mm 5 mps 738 mmHg 82%
    18:00 +20°C° 0.1 mm 4 mps 739 mmHg 85%
    19:00 +19°C° 0.1 mm 3 mps 739 mmHg 89%
    20:00 +18°C° 0.1 mm 3 mps 740 mmHg 92%
    21:00 +17°C° 0 mm 2 mps 740 mmHg 93%
    22:00 +16°C° 0 mm 2 mps 741 mmHg 93%
    23:00 +15°C° 0 mm 2 mps 742 mmHg 93%

    Pasado mañana, 7 Junio, Domingo

    Tiempo Temperatura Precipitaciones Viento Presión Humedad
    00:00 +15°C° 0 mm 1 mps 742 mmHg 92%
    01:00 +14°C° 0 mm 1 mps 742 mmHg 92%
    02:00 +12°C° 0 mm 0 mps 743 mmHg 91%
    03:00 +14°C° 0 mm 1 mps 743 mmHg 91%
    04:00 +14°C° 0 mm 1 mps 743 mmHg 90%
    05:00 +15°C° 0 mm 1 mps 743 mmHg 90%
    06:00 +17°C° 0 mm 2 mps 744 mmHg 87%
    07:00 +18°C° 0 mm 2 mps 744 mmHg 85%
    08:00 +20°C° 0 mm 3 mps 744 mmHg 82%
    09:00 +21°C° 0 mm 3 mps 744 mmHg 79%
    10:00 +22°C° 0 mm 3 mps 744 mmHg 76%
    11:00 +25°C° 0 mm 3 mps 745 mmHg 73%
    12:00 +25°C° 0.3 mm 3 mps 744 mmHg 74%
    13:00 +25°C° 0.3 mm 3 mps 744 mmHg 75%
    14:00 +26°C° 0.3 mm 3 mps 744 mmHg 76%
    15:00 +26°C° 0.7 mm 3 mps 744 mmHg 78%
    16:00 +25°C° 0.7 mm 3 mps 744 mmHg 80%
    17:00 +25°C° 0.7 mm 3 mps 744 mmHg 82%
    18:00 +24°C° 0.3 mm 3 mps 743 mmHg 86%
    19:00 +22°C° 0.3 mm 3 mps 743 mmHg 89%
    20:00 +21°C° 0.3 mm 3 mps 743 mmHg 92%
    21:00 +20°C° 0 mm 3 mps 744 mmHg 93%
    22:00 +19°C° 0 mm 3 mps 744 mmHg 93%
    23:00 +18°C° 0 mm 3 mps 744 mmHg 93%

    8 Junio, Lunes

    Tiempo Temperatura Precipitaciones Viento Presión Humedad
    00:00 +18°C° 0 mm 3 mps 744 mmHg 94%
    01:00 +18°C° 0 mm 3 mps 744 mmHg 94%
    02:00 +17°C° 0 mm 3 mps 744 mmHg 95%
    03:00 +17°C° 0 mm 3 mps 744 mmHg 95%
    04:00 +18°C° 0 mm 3 mps 744 mmHg 95%
    05:00 +18°C° 0 mm 3 mps 744 mmHg 95%
    06:00 +19°C° 0 mm 3 mps 744 mmHg 91%
    07:00 +20°C° 0 mm 3 mps 745 mmHg 86%
    08:00 +22°C° 0 mm 3 mps 745 mmHg 82%
    09:00 +23°C° 0 mm 4 mps 745 mmHg 79%
    10:00 +25°C° 0 mm 4 mps 745 mmHg 75%
    11:00 +26°C° 0 mm 4 mps 745 mmHg 71%
    12:00 +27°C° 0.1 mm 4 mps 745 mmHg 70%
    13:00 +27°C° 0.1 mm 4 mps 745 mmHg 69%
    14:00 +27°C° 0.1 mm 4 mps 745 mmHg 68%
    15:00 +27°C° 0 mm 3 mps 744 mmHg 70%
    16:00 +27°C° 0 mm 3 mps 744 mmHg 73%
    17:00 +27°C° 0 mm 3 mps 744 mmHg 75%
    18:00 +25°C° 0 mm 3 mps 744 mmHg 79%
    19:00 +24°C° 0 mm 2 mps 744 mmHg 83%
    20:00 +21°C° 0 mm 2 mps 744 mmHg 87%
    21:00 +20°C° 0 mm 2 mps 744 mmHg 88%
    22:00 +20°C° 0 mm 2 mps 744 mmHg 90%
    23:00 +19°C° 0 mm 2 mps 745 mmHg 92%

    9 Junio, Martes

    Tiempo Temperatura Precipitaciones Viento Presión Humedad
    00:00 +19°C° 0 mm 2 mps 745 mmHg 92%
    01:00 +18°C° 0 mm 2 mps 745 mmHg 93%
    02:00 +18°C° 0 mm 2 mps 745 mmHg 94%
    03:00 +18°C° 0 mm 2 mps 745 mmHg 94%
    04:00 +18°C° 0 mm 2 mps 745 mmHg 94%
    05:00 +19°C° 0 mm 2 mps 745 mmHg 95%
    06:00 +20°C° 0 mm 3 mps 745 mmHg 91%
    07:00 +21°C° 0 mm 3 mps 745 mmHg 87%
    08:00 +24°C° 0 mm 3 mps 745 mmHg 84%
    09:00 +25°C° 0 mm 4 mps 745 mmHg 79%
    10:00 +26°C° 0 mm 4 mps 745 mmHg 74%
    11:00 +27°C° 0 mm 4 mps 745 mmHg 69%
    12:00 +28°C° 0 mm 4 mps 745 mmHg 68%
    13:00 +28°C° 0 mm 4 mps 744 mmHg 66%
    14:00 +28°C° 0 mm 4 mps 744 mmHg 65%
    15:00 +28°C° 0.2 mm 3 mps 744 mmHg 69%
    16:00 +28°C° 0.2 mm 3 mps 744 mmHg 73%
    17:00 +27°C° 0.2 mm 2 mps 744 mmHg 77%
    18:00 +26°C° 0.1 mm 2 mps 744 mmHg 80%
    19:00 +24°C° 0.1 mm 2 mps 744 mmHg 83%
    20:00 +23°C° 0.1 mm 2 mps 744 mmHg 86%
    21:00 +21°C° 0 mm 2 mps 744 mmHg 88%
    22:00 +20°C° 0 mm 2 mps 744 mmHg 90%
    23:00 +19°C° 0 mm 2 mps 744 mmHg 92%

    10 Junio, Miércoles

    Tiempo Temperatura Precipitaciones Viento Presión Humedad
    00:00 +19°C° 0 mm 2 mps 744 mmHg 93%
    01:00 +19°C° 0 mm 2 mps 744 mmHg 93%
    02:00 +19°C° 0 mm 2 mps 744 mmHg 94%
    03:00 +19°C° 0 mm 2 mps 744 mmHg 94%
    04:00 +19°C° 0 mm 2 mps 744 mmHg 94%
    05:00 +19°C° 0 mm 2 mps 745 mmHg 94%
    06:00 +21°C° 0 mm 2 mps 745 mmHg 91%
    07:00 +23°C° 0 mm 2 mps 745 mmHg 88%
    08:00 +25°C° 0 mm 2 mps 745 mmHg 85%
    09:00 +26°C° 0.2 mm 2 mps 745 mmHg 80%
    10:00 +27°C° 0.2 mm 3 mps 745 mmHg 76%
    11:00 +28°C° 0.2 mm 3 mps 745 mmHg 71%
    12:00 +28°C° 0.3 mm 3 mps 745 mmHg 70%
    13:00 +28°C° 0.3 mm 2 mps 745 mmHg 69%
    14:00 +29°C° 0.3 mm 2 mps 745 mmHg 67%
    15:00 +28°C° 0.3 mm 2 mps 744 mmHg 71%
    16:00 +28°C° 0.3 mm 2 mps 744 mmHg 74%
    17:00 +28°C° 0.3 mm 2 mps 744 mmHg 77%
    18:00 +26°C° 0.2 mm 2 mps 744 mmHg 81%
    19:00 +25°C° 0.2 mm 2 mps 744 mmHg 85%
    20:00 +23°C° 0.2 mm 2 mps 744 mmHg 88%
    21:00 +23°C° 0 mm 2 mps 745 mmHg 90%
    22:00 +21°C° 0 mm 2 mps 745 mmHg 92%
    23:00 +20°C° 0 mm 2 mps 745 mmHg 93%
    Mostrar más